RYR66 EGPH-EKVG

Flight info

Callsign RYR66
Flight time N/A
Altitude 33000
Route GRICE P600 GLESK DCT SMOKI/N0459F340 DCT NALAN/M071F240 DCT SUDUR
Aircraft B738/M-SDE2E3FGHIRWXY/LB1

Departure

Time 2026-05-07 11:49
Airport Edinburgh Airport (EGPH)

Arrival

Time N/A
Airport Vágar Airport (EKVG)
Time Latitude Longitude Altitude Speed Heading
2026-05-07 11:29 55.94924 -3.36434 111 ft 0 kts 147°
2026-05-07 11:42 55.94934 -3.36446 110 ft 2 kts 145°
2026-05-07 11:42 55.94948 -3.36463 111 ft 2 kts 141°
2026-05-07 11:42 55.94960 -3.36483 111 ft 2 kts 133°
2026-05-07 11:43 55.94970 -3.36506 110 ft 2 kts 108°
2026-05-07 11:43 55.94970 -3.36535 111 ft 2 kts 65°
2026-05-07 11:43 55.94966 -3.36549 111 ft 1 kts 56°
2026-05-07 11:43 55.94966 -3.36550 111 ft 0 kts 57°
2026-05-07 11:44 55.94974 -3.36523 111 ft 9 kts 61°
2026-05-07 11:45 55.95020 -3.36406 111 ft 12 kts 29°
2026-05-07 11:45 55.95097 -3.36384 111 ft 11 kts 38°
2026-05-07 11:45 55.95141 -3.36268 111 ft 11 kts 58°
2026-05-07 11:45 55.95178 -3.36150 110 ft 11 kts 61°
2026-05-07 11:46 55.95218 -3.36038 111 ft 10 kts 56°
2026-05-07 11:46 55.95256 -3.35926 111 ft 11 kts 59°
2026-05-07 11:46 55.95302 -3.35791 111 ft 16 kts 59°
2026-05-07 11:46 55.95368 -3.35592 111 ft 21 kts 58°
2026-05-07 11:47 55.95432 -3.35419 113 ft 16 kts 43°
2026-05-07 11:47 55.95491 -3.35432 112 ft 0 kts 326°
2026-05-07 11:47 55.95498 -3.35439 111 ft 2 kts 327°
2026-05-07 11:47 55.95541 -3.35487 112 ft 13 kts 328°
2026-05-07 11:48 55.95543 -3.35646 112 ft 19 kts 238°
2026-05-07 11:48 55.95367 -3.36165 106 ft 87 kts 239°
2026-05-07 11:48 55.94931 -3.37450 112 ft 153 kts 239°
2026-05-07 11:48 55.94293 -3.39292 354 ft 190 kts 238°
2026-05-07 11:49 55.93560 -3.41396 978 ft 206 kts 238°
2026-05-07 11:49 55.92803 -3.43583 1636 ft 211 kts 239°
2026-05-07 11:49 55.92023 -3.45840 2423 ft 209 kts 236°
2026-05-07 11:49 55.91234 -3.47987 3180 ft 208 kts 238°
2026-05-07 11:50 55.90471 -3.50190 3784 ft 213 kts 242°
2026-05-07 11:50 55.90089 -3.52755 4364 ft 220 kts 270°
2026-05-07 11:50 55.90409 -3.55429 4973 ft 226 kts 296°
2026-05-07 11:50 55.91430 -3.57638 5565 ft 237 kts 324°
2026-05-07 11:51 55.92988 -3.58714 6193 ft 248 kts 355°
2026-05-07 11:51 55.94669 -3.58125 6826 ft 258 kts 28°
2026-05-07 11:51 55.96206 -3.56361 7507 ft 267 kts 33°
2026-05-07 11:51 55.97770 -3.54452 8131 ft 278 kts 34°
2026-05-07 11:52 55.99376 -3.52502 8751 ft 280 kts 30°
2026-05-07 11:52 56.01246 -3.51413 8791 ft 289 kts 359°
2026-05-07 11:52 56.03242 -3.51889 8941 ft 298 kts 349°
2026-05-07 11:52 56.05324 -3.52921 9126 ft 323 kts 332°
2026-05-07 11:53 56.07056 -3.55639 9363 ft 345 kts 303°
2026-05-07 11:53 56.08260 -3.59380 9936 ft 355 kts 299°
2026-05-07 11:53 56.09562 -3.63174 10658 ft 360 kts 309°
2026-05-07 11:53 56.11534 -3.65893 11428 ft 363 kts 336°
2026-05-07 11:54 56.13995 -3.66924 12214 ft 366 kts 353°
2026-05-07 11:54 56.16531 -3.67490 12910 ft 370 kts 351°
2026-05-07 11:54 56.19116 -3.67611 13517 ft 377 kts
2026-05-07 11:54 56.21617 -3.66125 14163 ft 382 kts 28°
2026-05-07 11:55 56.23830 -3.63475 14902 ft 384 kts 36°
2026-05-07 11:55 56.25977 -3.60576 15535 ft 388 kts 37°
2026-05-07 11:55 56.28147 -3.57650 16153 ft 392 kts 36°
2026-05-07 11:55 56.30361 -3.54729 16793 ft 395 kts 35°
2026-05-07 11:56 56.32611 -3.51851 17426 ft 398 kts 35°
2026-05-07 11:56 56.34885 -3.48965 18015 ft 401 kts 35°
2026-05-07 11:56 56.37170 -3.46055 18597 ft 405 kts 35°
2026-05-07 11:56 56.39474 -3.43078 19142 ft 409 kts 36°
2026-05-07 11:57 56.41787 -3.40061 19696 ft 412 kts 36°
2026-05-07 11:57 56.44112 -3.37024 20218 ft 415 kts 36°
2026-05-07 11:57 56.46483 -3.34006 20721 ft 418 kts 34°
2026-05-07 11:57 56.48896 -3.31027 21214 ft 422 kts 34°
2026-05-07 11:58 56.51304 -3.28079 21694 ft 425 kts 34°
2026-05-07 11:58 56.53757 -3.25069 22167 ft 427 kts 34°
2026-05-07 11:58 56.56225 -3.22026 22629 ft 430 kts 34°
2026-05-07 11:58 56.58700 -3.18959 23068 ft 433 kts 34°
2026-05-07 11:59 56.61194 -3.15856 23498 ft 436 kts 34°
2026-05-07 11:59 56.63703 -3.12727 23910 ft 439 kts 34°
2026-05-07 11:59 56.66228 -3.09573 24299 ft 442 kts 34°
2026-05-07 11:59 56.68768 -3.06397 24680 ft 445 kts 34°
2026-05-07 12:00 56.70843 -3.03793 24979 ft 447 kts 34°
2026-05-07 12:00 56.73409 -3.00559 25360 ft 449 kts 34°
2026-05-07 12:00 56.75984 -2.97306 25714 ft 452 kts 34°
2026-05-07 12:00 56.78579 -2.94031 26023 ft 455 kts 34°
2026-05-07 12:01 56.81194 -2.90738 26396 ft 457 kts 34°
2026-05-07 12:01 56.83804 -2.87447 26896 ft 454 kts 34°
2026-05-07 12:01 56.86391 -2.84184 27456 ft 451 kts 33°
2026-05-07 12:01 56.89114 -2.81383 27960 ft 448 kts 24°
2026-05-07 12:02 56.92026 -2.79396 28467 ft 446 kts 16°
2026-05-07 12:02 56.95062 -2.78232 28832 ft 447 kts
2026-05-07 12:02 56.98151 -2.77536 29185 ft 448 kts
2026-05-07 12:02 57.01249 -2.76921 29624 ft 446 kts
2026-05-07 12:03 57.04320 -2.76322 30145 ft 443 kts
2026-05-07 12:03 57.07375 -2.75707 30606 ft 441 kts
2026-05-07 12:03 57.10419 -2.75071 30984 ft 440 kts
2026-05-07 12:03 57.13461 -2.74415 31316 ft 441 kts
2026-05-07 12:04 57.14454 -2.74198 31430 ft 441 kts
2026-05-07 12:04 57.19562 -2.73066 32012 ft 440 kts
2026-05-07 12:04 57.22590 -2.72389 32422 ft 438 kts
2026-05-07 12:04 57.25615 -2.71712 32787 ft 437 kts
2026-05-07 12:05 57.28596 -2.71044 33098 ft 437 kts
2026-05-07 12:05 57.31619 -2.70365 33375 ft 438 kts
2026-05-07 12:05 57.34637 -2.69688 33704 ft 437 kts
2026-05-07 12:05 57.37646 -2.69011 34058 ft 435 kts
2026-05-07 12:06 57.40653 -2.68334 34332 ft 435 kts
2026-05-07 12:06 57.43657 -2.67657 34606 ft 435 kts
2026-05-07 12:06 57.46665 -2.66978 34930 ft 434 kts
2026-05-07 12:07 57.52701 -2.65611 35008 ft 439 kts
2026-05-07 12:07 57.58740 -2.64239 34985 ft 434 kts
2026-05-07 12:08 57.64707 -2.62878 35011 ft 431 kts
2026-05-07 12:08 57.70657 -2.61518 35005 ft 431 kts
2026-05-07 12:09 57.76626 -2.60883 34997 ft 430 kts 352°
2026-05-07 12:09 57.82328 -2.64005 35009 ft 429 kts 333°
2026-05-07 12:10 57.87644 -2.69100 35002 ft 429 kts 332°
2026-05-07 12:10 57.92948 -2.74312 34999 ft 430 kts 332°
2026-05-07 12:11 57.98268 -2.79483 35006 ft 431 kts 333°
2026-05-07 12:11 58.03575 -2.84604 35005 ft 431 kts 333°
2026-05-07 12:12 58.08927 -2.89765 35006 ft 432 kts 333°
2026-05-07 12:12 58.14278 -2.94941 35002 ft 433 kts 333°
2026-05-07 12:13 58.19638 -3.00144 35000 ft 433 kts 333°
2026-05-07 12:13 58.24999 -3.05366 35001 ft 433 kts 332°
2026-05-07 12:14 58.30355 -3.10602 34995 ft 433 kts 332°
2026-05-07 12:14 58.35709 -3.15854 35005 ft 433 kts 332°
2026-05-07 12:15 58.41059 -3.21121 34999 ft 433 kts 332°
2026-05-07 12:15 58.46405 -3.26400 35006 ft 432 kts 332°
2026-05-07 12:16 58.51747 -3.31695 34996 ft 432 kts 332°
2026-05-07 12:16 58.57084 -3.37003 35007 ft 432 kts 332°
2026-05-07 12:17 58.62413 -3.42321 35003 ft 432 kts 332°
2026-05-07 12:17 58.67738 -3.47655 35006 ft 431 kts 332°
2026-05-07 12:18 58.73018 -3.52961 35003 ft 431 kts 332°
2026-05-07 12:18 58.78333 -3.58320 35002 ft 431 kts 332°
2026-05-07 12:19 58.83637 -3.63687 34999 ft 431 kts 332°
2026-05-07 12:19 58.88942 -3.69074 35003 ft 431 kts 332°
2026-05-07 12:20 58.93350 -3.73565 35002 ft 431 kts 332°
2026-05-07 12:20 58.96897 -3.77188 35005 ft 431 kts 332°